#timestamp,LO_Frequency,Hit,StdDev 
1550880015.2,286046999.1,N
1550880035.1,286046999.2,N
1550880036.0,286046999.2,N
1550880055.8,286046998.2,N
1550880075.6,286046999.8,N
1550880095.5,286046999.3,N
1550880115.3,286046998.4,N
1550880135.2,286046998.5,N
1550880155.9,286047002.5,N
1550880175.7,286047000.2,N
1550880195.6,286046998.3,N
1550880215.4,286047002.8,N
1550880235.2,286047002.3,N
1550880255.1,286046998.5,N
1550880256.0,286046998.5,N
1550880275.8,286047001.0,N
1550880295.7,286047002.8,N
1550880315.5,286047000.0,N
1550880335.3,286046999.8,N
1550880355.2,286047001.4,N
1550880375.0,286047004.4,N
1550880375.9,286047004.4,N
1550880395.8,286047003.3,N
1550880415.6,286047005.8,N
1550880435.4,286047001.6,N
1550880455.3,286046999.7,N
1550880475.1,286047002.8,N
1550880495.8,286047000.6,N
1550880515.7,286047000.8,N
1550880535.5,286046998.8,N
1550880555.4,286046999.2,N
1550880575.2,286046998.9,N
1550880595.0,286046996.9,N
1550880595.9,286046996.9,N
1550880615.8,286046998.2,N
1550880635.6,286046999.3,N
1550880655.5,286046997.9,N
1550880675.3,286046995.9,N
1550880695.1,286046994.9,N
1550880715.9,286046995.2,N
1550880735.7,286046997.4,N
1550880755.5,286046998.4,N
1550880775.4,286046998.8,N
1550880795.2,286046999.4,N
1550880815.1,286046999.4,N
1550880816.0,286046999.4,N
1550880835.8,286046998.8,N
1550880855.6,286046997.2,N
1550880875.5,286046996.5,N
1550880895.3,286046998.9,N
1550880915.1,286046998.8,N
1550880935.9,286047000.8,N
1550880955.7,286046996.9,N
1550880975.6,286046996.9,N
1550880995.4,286046999.5,N
1550881015.2,286046997.1,N
1550881035.1,286046997.8,N
1550881036.0,286046997.8,N
1550881055.8,286046997.9,N
1550881075.6,286046996.6,N
1550881095.5,286046994.9,Y
1550881115.3,286047000.5,P
1550881135.2,286047000.4,N
1550881155.9,286046998.2,N
1550881175.7,286046999.5,N
1550881195.6,286046998.7,N
1550881215.4,286047001.0,N
1550881235.3,286047000.8,N
1550881255.1,286047000.6,N
1550881256.0,286047000.6,N
1550881275.8,286047000.8,N
1550881295.7,286047000.3,N
1550881315.5,286047001.6,N
1550881335.3,286046999.7,N
1550881355.2,286047000.0,N
1550881375.0,286047000.5,N
1550881375.9,286047000.5,N
1550881395.8,286047000.8,N
1550881415.6,286047000.5,N
1550881435.4,286047001.2,N
1550881455.3,286047000.9,N
1550881475.1,286047000.7,N
1550881495.9,286047000.5,N
1550881515.7,286047000.0,N
1550881535.5,286047000.8,N
1550881555.4,286047002.2,N
1550881575.2,286047001.4,N
1550881595.0,286047001.6,N
1550881595.9,286047001.6,N
1550881615.8,286046999.7,N
1550881635.6,286046999.9,N
1550881655.5,286047000.0,N
1550881675.3,286047001.7,N
1550881695.1,286047001.8,N
1550881715.9,286047002.3,N
1550881735.7,286047002.5,Y
1550881755.6,286047000.0,P
1550881775.4,286047000.4,N
1550881795.2,286046998.5,P
1550881815.1,286047002.4,N
1550881816.0,286047002.4,N
1550881835.8,286046999.9,N
1550881855.6,286046999.8,N
1550881875.5,286046999.9,N
1550881895.3,286047001.1,N
1550881915.2,286046998.8,N
1550881935.9,286046998.8,N
1550881955.7,286046998.7,N
1550881975.6,286047000.0,N
1550881995.4,286047002.2,N
1550882015.2,286047001.9,N
1550882035.1,286047001.5,N
1550882036.0,286047001.5,N
1550882055.8,286047004.0,Y
1550882075.7,286047001.9,P
1550882095.5,286047003.4,P
1550882115.3,286047005.9,P
1550882135.2,286047006.8,Y
1550882155.0,286047002.7,P
1550882155.9,286047002.7,P
1550882175.8,286047002.6,P
1550882195.6,286046999.9,N
1550882215.4,286046999.8,N
1550882235.3,286047000.1,N
1550882255.1,286047002.5,N
1550882275.9,286046999.8,N
1550882295.7,286047002.8,N
1550882315.5,286047000.2,N
1550882335.4,286046999.7,N
1550882355.2,286047001.1,N
1550882375.0,286047000.9,N
1550882375.9,286047000.9,N
1550882395.8,286047000.9,N
1550882415.6,286046998.5,N
1550882435.5,286046996.9,N
1550882455.3,286046996.9,N
1550882475.1,286046997.4,N
1550882495.9,286046999.2,N
1550882515.7,286046998.5,N
1550882535.6,286046998.4,N
1550882555.4,286046998.3,N
1550882575.2,286046996.8,N
1550882595.1,286046996.6,N
1550882596.0,286046996.6,N
1550882615.8,286046998.8,N
1550882635.6,286047000.8,N
1550882655.5,286046998.6,N
1550882675.3,286046997.7,N
1550882695.2,286046997.4,N
1550882715.9,286046997.1,N
1550882735.7,286046996.6,N
1550882755.6,286046998.5,N
1550882775.4,286047000.9,N
1550882795.3,286046998.4,N
1550882815.1,286046998.2,N
1550882835.8,286046998.2,N
1550882855.7,286046999.0,N
1550882875.5,286047000.9,N
1550882895.4,286047000.3,N
1550882915.2,286047002.8,N
1550882935.0,286047002.2,N
1550882935.9,286047002.2,N
1550882955.8,286046999.7,N
1550882975.6,286047000.8,N
1550882995.4,286046999.7,N
1550883015.3,286047000.8,N
1550883035.1,286047002.5,N
1550883055.9,286047001.7,N
1550883075.7,286046999.7,N
1550883095.5,286046999.7,N
1550883115.4,286047002.0,N
1550883135.2,286047000.2,N
1550883155.0,286046998.4,N
1550883156.0,286046998.4,N
1550883175.8,286046998.6,N
1550883195.6,286046996.8,N
1550883215.5,286046999.5,N
1550883235.3,286046999.1,N
1550883255.1,286047001.0,N
1550883275.9,286047000.8,N
1550883295.7,286046998.5,N
1550883315.6,286046998.6,N
1550883335.4,286046999.2,N
1550883355.2,286047000.4,N
1550883375.1,286047002.7,N
1550883376.0,286047002.7,N
1550883395.8,286047002.3,N
1550883415.6,286047001.5,N
1550883435.5,286047005.3,Y
1550883455.3,286047002.9,P
1550883475.2,286047001.3,N
1550883495.9,286047005.7,P
1550883515.7,286047001.3,N
1550883535.6,286047002.2,N
1550883555.4,286047001.9,N
1550883575.2,286047004.0,N
1550883595.1,286047002.9,N
1550883596.0,286047002.9,N
